Location: S�tio Afonso Gruber
(26.1760°S, 49.5250°W)
Time: 11:17:13
(UTC+00:00)

CUTE-I - Visible Passes

Search period start: 04 December 2022 00:00
Search period end: 14 December 2022 00:00
Orbit: 810 x 823 km, 98.7° (Epoch: 03 December)

Date Brightness Start Highest point End Pass type
(mag) Time Alt. Az. Time Alt. Az. Time Alt. Az.
05 Dec ? 07:39:20 10° E 07:41:39 13° ESE 07:43:57 10° SE visible
06 Dec ? 23:02:35 10° SW 23:03:38 11° WSW 23:04:41 10° WSW visible
07 Dec ? 22:38:33 10° SSW 22:42:09 19° WSW 22:45:43 10° WNW visible
09 Dec ? 07:51:01 10° ENE 07:54:29 18° ESE 07:57:59 10° SSE visible
11 Dec ? 22:52:30 10° SW 22:55:00 13° WSW 22:57:28 10° W visible
12 Dec ? 22:29:23 10° SSW 22:33:28 23° WSW 22:37:32 10° WNW visible
